Overview Statistics Trail Chart Weather Telemetry Raw packets
 

This is the latest recevied weather packets stored in our database for station/object WD7OO. If no packets are shown the sender has not sent any weather packets the latest 10 day(s).

<< 63 64 65 66 67 68 69 >>
Time Temp. Humidity Pressure Rain* Wind** Luminosity Snow
1788189931 21.11° C 99% 1018.2 hPa 0 mm - 42 W/m² -
1788189627 21.11° C 99% 1018.4 hPa 0 mm - 41 W/m² -
1788189326 21.11° C 99% 1018.2 hPa 1.78 mm - 45 W/m² -
1788189026 21.11° C 99% 1018.2 hPa 1.78 mm - 50 W/m² -
1788188721 21.11° C 99% 1018.2 hPa 0 mm - 57 W/m² -
1788188417 21.67° C 99% 1018.2 hPa 0 mm - 63 W/m² -
1788188111 21.11° C 99% 1018.2 hPa 0 mm - 56 W/m² -
1788187807 21.11° C 99% 1018.2 hPa 0 mm - 49 W/m² -
1788187503 21.11° C 99% 1018.3 hPa 0 mm - 68 W/m² -
1788187198 21.11° C 99% 1018.3 hPa 0 mm - 112 W/m² -
1788186892 21.11° C 99% 1017.8 hPa 0 mm - 128 W/m² -
1788186588 21.11° C 99% 1017.9 hPa 0 mm - 81 W/m² -
1788186284 20.56° C 99% 1018 hPa 1.27 mm - 76 W/m² -
1788185978 20.56° C 99% 1018 hPa 1.27 mm - 52 W/m² -
1788185672 20.56° C 99% 1018.1 hPa 0 mm - 32 W/m² -
1788185367 20.56° C 99% 1018.1 hPa 0 mm - 25 W/m² -
1788185061 20.56° C 99% 1018.2 hPa 0 mm - 26 W/m² -
1788184755 20.56° C 99% 1018.1 hPa 0 mm - 24 W/m² -
1788184455 20.56° C 99% 1018.1 hPa 0 mm - 20 W/m² -
1788184155 20.56° C 99% 1017.6 hPa 0 mm - 21 W/m² -
1788183852 20.56° C 99% 1017.9 hPa 0 mm - 21 W/m² -
1788183551 20.56° C 99% 1017.8 hPa 0 mm - 19 W/m² -
1788183246 20.56° C 99% 1018 hPa 0 mm - 19 W/m² -
1788182941 20.56° C 99% 1017.9 hPa 0 mm - 19 W/m² -
1788182636 20.56° C 99% 1018 hPa 0 mm - 19 W/m² -

* Rain latest hour (hover to see other rain measurements)
** Current wind speed in m/s (hover to see current wind gust speed)